TimeEEST,TemperatureF,Dew PointF,Humidity,Sea Level PressureIn,VisibilityMPH,Wind Direction,Wind SpeedMPH,Gust SpeedMPH,PrecipitationIn,Events,Conditions,WindDirDegrees,DateUTC
12:20 AM,59.0,44.6,59,30.04,-9999.0,NNW,4.6,-,N/A,,Unknown,330,2012-10-04 21:20:00
12:50 AM,59.0,44.6,59,30.04,-9999.0,NW,5.8,-,N/A,,Unknown,320,2012-10-04 21:50:00
1:20 AM,57.2,44.6,63,30.04,-9999.0,NNW,6.9,-,N/A,,Unknown,330,2012-10-04 22:20:00
1:50 AM,60.8,46.4,59,30.04,-9999.0,NW,5.8,-,N/A,,Unknown,320,2012-10-04 22:50:00
2:20 AM,60.8,44.6,55,30.04,-9999.0,NW,5.8,-,N/A,,Unknown,320,2012-10-04 23:20:00
2:50 AM,60.8,44.6,55,30.04,-9999.0,NNW,5.8,-,N/A,,Unknown,330,2012-10-04 23:50:00
3:20 AM,57.2,44.6,63,30.04,-9999.0,NNW,5.8,-,N/A,,Unknown,340,2012-10-05 00:20:00
3:50 AM,59.0,44.6,59,30.04,-9999.0,NNW,4.6,-,N/A,,Unknown,340,2012-10-05 00:50:00
4:20 AM,57.2,44.6,63,30.04,-9999.0,Variable,2.3,-,N/A,,Unknown,0,2012-10-05 01:20:00
4:50 AM,57.2,44.6,63,30.04,-9999.0,Variable,3.5,-,N/A,,Unknown,0,2012-10-05 01:50:00
5:20 AM,55.4,44.6,67,30.06,-9999.0,NNW,5.8,-,N/A,,Unknown,330,2012-10-05 02:20:00
5:50 AM,55.4,44.6,67,30.06,-9999.0,NNW,5.8,-,N/A,,Unknown,340,2012-10-05 02:50:00
6:20 AM,59.0,44.6,59,30.06,-9999.0,NNW,5.8,-,N/A,,Unknown,330,2012-10-05 03:20:00
6:50 AM,57.2,44.6,63,30.06,-9999.0,NW,5.8,-,N/A,,Unknown,320,2012-10-05 03:50:00
7:20 AM,57.2,46.4,67,30.06,-9999.0,WNW,4.6,-,N/A,,Unknown,300,2012-10-05 04:20:00
7:50 AM,55.4,46.4,72,30.06,-9999.0,Calm,Calm,-,N/A,,Clear,0,2012-10-05 04:50:00
8:50 AM,60.8,46.4,59,30.09,6.2,West,4.6,-,N/A,,Scattered Clouds,270,2012-10-05 05:50:00
9:50 AM,66.2,48.2,52,30.09,6.2,North,6.9,-,N/A,,Scattered Clouds,10,2012-10-05 06:50:00
10:50 AM,68.0,50.0,52,30.12,6.2,North,6.9,-,N/A,,Scattered Clouds,0,2012-10-05 07:50:00
11:50 AM,71.6,46.4,41,30.12,6.2,Calm,Calm,-,N/A,,Scattered Clouds,0,2012-10-05 08:50:00
12:50 PM,75.2,48.2,38,30.12,6.2,Calm,Calm,-,N/A,,Scattered Clouds,0,2012-10-05 09:50:00
1:50 PM,77.0,46.4,34,30.09,6.2,Calm,Calm,-,N/A,,Scattered Clouds,0,2012-10-05 10:50:00
2:50 PM,78.8,42.8,28,30.09,6.2,Calm,Calm,-,N/A,,Scattered Clouds,0,2012-10-05 11:50:00
3:50 PM,80.6,41.0,24,30.09,6.2,Calm,Calm,-,N/A,,Partly Cloudy,0,2012-10-05 12:50:00
4:50 PM,77.0,39.2,26,30.09,6.2,Calm,Calm,-,N/A,,Scattered Clouds,0,2012-10-05 13:50:00
5:50 PM,75.2,39.2,27,30.09,6.2,Calm,Calm,-,N/A,,Partly Cloudy,0,2012-10-05 14:50:00
6:50 PM,73.4,41.0,31,30.09,6.2,NNE,4.6,-,N/A,,Partly Cloudy,30,2012-10-05 15:50:00
7:50 PM,68.0,42.8,40,30.12,6.2,North,6.9,-,N/A,,Partly Cloudy,10,2012-10-05 16:50:00
8:50 PM,66.2,42.8,43,30.12,6.2,NNE,6.9,-,N/A,,Partly Cloudy,20,2012-10-05 17:50:00
9:20 PM,64.4,42.8,45,30.15,-9999.0,SW,4.6,-,N/A,,Unknown,220,2012-10-05 18:20:00
9:50 PM,64.4,44.6,49,30.15,-9999.0,Variable,3.5,-,N/A,,Unknown,0,2012-10-05 18:50:00
10:20 PM,64.4,42.8,45,30.15,-9999.0,Variable,3.5,-,N/A,,Unknown,0,2012-10-05 19:20:00
10:50 PM,62.6,42.8,48,30.15,-9999.0,NNW,4.6,-,N/A,,Unknown,330,2012-10-05 19:50:00
11:20 PM,62.6,44.6,52,30.18,-9999.0,NNW,5.8,-,N/A,,Unknown,330,2012-10-05 20:20:00
11:50 PM,62.6,42.8,48,30.18,-9999.0,NNW,5.8,-,N/A,,Unknown,330,2012-10-05 20:50:00